Date String (YYYY-MM-DD hh:mm:ss) UTC,Instrument flags,absolute air pressure of the measurement (hPa),sample flow rate (lpm),inlet stack bypass flow (lpm),air temperature of the measurement (°C),ambient temperature measured by the external sensor (°C),aerosol sample conditioner tube jacket temperature (°C),OPC LED temperature (°C),internal box temperature (°C),relative humidity of the measurement (%),span deviation,mass concentration of particles derived from Lorenz-Mie calculation of OPC scattering (μg/m³),mass concentration of particles derived from Lorenz-Mie calculation of OPC scattering (μg/m³),mass concentration of particles derived from Lorenz-Mie calculation of OPC scattering (μg/m³)
DateTimeUTC,F1_M11,P_M11,Q1_M11,Q2_M11,T1_M11,T2_M11,T3_M11,T4_M11,T5_M11,U1_M11,ZSPAN_M11,X0_M11,X2_M11,X1_M11
2023-07-26 11:00:00,SystemResetWarning,0834.0,5.00,000.00,029.3,025.7,000.0,037.5,030.7,21.8,0000.0,0005.71,0003.19,0002.29
2023-07-26 11:01:00,SystemResetWarning,0833.9,5.01,000.00,029.2,025.8,000.0,037.5,030.6,22.1,0000.0,0005.98,0003.17,0002.28
2023-07-26 11:02:00,SystemResetWarning,0833.9,5.02,000.00,029.1,026.1,000.0,037.5,030.5,22.7,0000.0,0006.89,0003.18,0002.28
2023-07-26 11:03:00,SystemResetWarning,0834.0,4.99,000.00,029.1,026.5,000.0,037.5,030.6,22.5,0000.0,0007.04,0003.19,0002.28
2023-07-26 11:04:00,SystemResetWarning,0834.0,5.00,000.00,029.1,026.8,000.0,037.6,030.7,21.7,0000.0,0006.98,0003.18,0002.29
2023-07-26 11:05:00,SystemResetWarning,0834.0,5.00,000.00,029.1,027.1,000.0,037.6,030.8,21.4,0000.0,0006.76,0003.17,0002.30
2023-07-26 11:06:00,SystemResetWarning,0834.0,5.01,000.00,029.2,027.4,000.0,037.6,030.8,21.4,0000.0,0006.56,0003.13,0002.28
2023-07-26 11:07:00,SystemResetWarning,0834.0,4.99,000.00,029.2,027.6,000.0,037.6,030.9,21.5,0000.0,0006.89,0003.19,0002.28
2023-07-26 11:08:00,SystemResetWarning,0834.0,4.98,000.00,029.2,027.8,000.0,037.6,030.9,21.5,0000.0,0007.04,0003.22,0002.28
2023-07-26 11:09:00,SystemResetWarning,0834.0,5.01,000.00,029.3,028.0,000.0,037.7,031.0,22.3,0000.0,0006.90,0003.19,0002.29
2023-07-26 11:10:00,SystemResetWarning,0834.0,5.01,000.00,029.3,028.1,000.0,037.7,031.1,22.7,0000.0,0007.73,0003.20,0002.27
2023-07-26 11:11:00,SystemResetWarning,0834.0,4.99,000.00,029.3,027.3,000.0,037.6,031.0,22.5,0000.0,0007.96,0003.27,0002.30
2023-07-26 11:12:00,SystemResetWarning,0834.0,4.99,000.00,029.3,025.4,000.0,037.5,030.8,22.4,0000.0,0008.34,0003.29,0002.31
2023-07-26 11:13:00,SystemResetWarning,0834.0,5.01,000.00,029.2,024.7,000.0,037.4,030.5,22.6,0000.0,0007.81,0003.28,0002.32
2023-07-26 11:14:00,SystemResetWarning,0834.0,5.00,000.00,029.1,025.0,000.0,037.4,030.3,22.5,0000.0,0007.74,0003.27,0002.33
2023-07-26 11:15:00,SystemResetWarning,0834.0,5.00,000.00,029.0,025.4,000.0,037.4,030.3,22.5,0000.0,0007.99,0003.29,0002.35
2023-07-26 11:16:00,SystemResetWarning,0834.0,5.00,000.00,029.0,025.8,000.0,037.5,030.4,22.4,0000.0,0008.65,0003.32,0002.35
2023-07-26 11:17:00,SystemResetWarning,0834.0,5.00,000.00,029.0,026.3,000.0,037.5,030.5,22.3,0000.0,0008.60,0003.31,0002.36
2023-07-26 11:18:00,SystemResetWarning,0834.0,5.01,000.00,029.0,026.6,000.0,037.5,030.6,22.4,0000.0,0008.39,0003.26,0002.37
2023-07-26 11:19:00,SystemResetWarning,0834.0,5.01,000.00,029.0,027.0,000.0,037.5,030.6,22.7,0000.0,0008.34,0003.25,0002.39
2023-07-26 11:20:00,SystemResetWarning,0834.0,4.98,000.00,029.1,027.3,000.0,037.5,030.7,22.8,0000.0,0008.89,0003.28,0002.39
2023-07-26 11:21:00,SystemResetWarning,0834.1,5.00,000.00,029.1,027.5,000.0,037.5,030.8,22.5,0000.0,0008.43,0003.30,0002.40
2023-07-26 11:22:00,SystemResetWarning,0834.1,5.01,000.00,029.1,027.7,000.0,037.5,030.8,22.4,0000.0,0008.15,0003.26,0002.38
2023-07-26 11:23:00,SystemResetWarning,0834.1,5.00,000.00,029.2,027.9,000.0,037.6,030.9,22.6,0000.0,0007.90,0003.23,0002.37
2023-07-26 11:24:00,SystemResetWarning,0834.1,4.99,000.00,029.2,028.0,000.0,037.6,030.9,22.5,0000.0,0007.61,0003.21,0002.37
2023-07-26 11:25:00,SystemResetWarning,0834.2,5.00,000.00,029.3,028.1,000.0,037.6,031.0,22.7,0000.0,0007.99,0003.24,0002.38
2023-07-26 11:26:00,SystemResetWarning,0834.2,5.00,000.00,029.3,028.3,000.0,037.6,031.0,22.6,0000.0,0008.40,0003.25,0002.39
2023-07-26 11:27:00,SystemResetWarning,0834.1,4.99,000.00,029.3,027.4,000.0,037.6,030.9,22.5,0000.0,0008.14,0003.22,0002.40
2023-07-26 11:28:00,SystemResetWarning,0834.1,5.00,000.00,029.2,025.3,000.0,037.5,030.6,22.6,0000.0,0008.43,0003.26,0002.41
2023-07-26 11:29:00,SystemResetWarning,0834.1,5.01,000.00,029.1,024.6,000.0,037.4,030.4,22.1,0000.0,0008.54,0003.30,0002.41
2023-07-26 11:30:00,SystemResetWarning,0834.1,5.01,000.00,029.0,024.8,000.0,037.4,030.2,22.0,0000.0,0008.60,0003.32,0002.42
2023-07-26 11:31:00,SystemResetWarning,0834.1,5.00,000.00,028.9,025.2,000.0,037.4,030.2,21.8,0000.0,0008.12,0003.29,0002.41
2023-07-26 11:32:00,SystemResetWarning,0834.1,4.98,000.00,028.9,025.7,000.0,037.4,030.3,22.0,0000.0,0008.05,0003.30,0002.41
2023-07-26 11:33:00,SystemResetWarning,0834.1,5.00,000.00,028.9,026.2,000.0,037.4,030.4,21.8,0000.0,0008.10,0003.32,0002.44
2023-07-26 11:34:00,SystemResetWarning,0834.2,5.01,000.00,028.9,026.6,000.0,037.4,030.5,21.9,0000.0,0008.41,0003.36,0002.48
2023-07-26 11:35:00,SystemResetWarning,0834.1,5.00,000.00,029.0,026.9,000.0,037.4,030.5,21.7,0000.0,0008.40,0003.36,0002.51
2023-07-26 11:36:00,SystemResetWarning,0834.1,4.99,000.00,029.0,027.2,000.0,037.4,030.6,21.5,0000.0,0008.11,0003.36,0002.53
2023-07-26 11:37:00,SystemResetWarning,0834.1,4.99,000.00,029.0,027.4,000.0,037.5,030.7,21.4,0000.0,0008.02,0003.37,0002.55
2023-07-26 11:38:00,SystemResetWarning,0834.2,4.99,000.00,029.1,027.6,000.0,037.5,030.8,21.5,0000.0,0007.39,0003.37,0002.53
2023-07-26 11:39:00,SystemResetWarning,0834.2,5.00,000.00,029.1,027.8,000.0,037.5,030.8,21.4,0000.0,0007.07,0003.35,0002.54
2023-07-26 11:40:00,SystemResetWarning,0834.2,5.00,000.00,029.1,028.0,000.0,037.5,030.9,21.2,0000.0,0007.39,0003.35,0002.55
2023-07-26 11:41:00,SystemResetWarning,0834.4,5.00,000.00,029.2,028.1,000.0,037.5,030.9,21.1,0000.0,0007.41,0003.34,0002.56
2023-07-26 11:42:00,SystemResetWarning,0834.4,5.01,000.00,029.2,028.2,000.0,037.6,031.0,21.2,0000.0,0007.59,0003.39,0002.58
2023-07-26 11:43:00,SystemResetWarning,0834.2,5.00,000.00,029.3,028.1,000.0,037.6,031.0,21.3,0000.0,0007.67,0003.41,0002.59
2023-07-26 11:44:00,SystemResetWarning,0834.2,4.98,000.00,029.2,026.4,000.0,037.5,030.7,21.4,0000.0,0007.63,0003.40,0002.60
2023-07-26 11:45:00,SystemResetWarning,0834.2,5.01,000.00,029.1,024.8,000.0,037.4,030.4,21.5,0000.0,0007.29,0003.38,0002.58
2023-07-26 11:46:00,SystemResetWarning,0834.2,5.02,000.00,029.0,024.7,000.0,037.3,030.3,22.0,0000.0,0007.36,0003.39,0002.57
2023-07-26 11:47:00,SystemResetWarning,0834.2,4.99,000.00,028.9,025.1,000.0,037.3,030.2,22.4,0000.0,0007.18,0003.36,0002.55
2023-07-26 11:48:00,SystemResetWarning,0834.2,4.99,000.00,028.9,025.5,000.0,037.4,030.2,22.5,0000.0,0006.50,0003.32,0002.53
2023-07-26 11:49:00,SystemResetWarning,0834.2,5.00,000.00,028.9,026.0,000.0,037.4,030.3,22.5,0000.0,0006.94,0003.33,0002.52
2023-07-26 11:50:00,SystemResetWarning,0834.2,5.01,000.00,028.9,026.4,000.0,037.4,030.4,22.5,0000.0,0006.83,0003.30,0002.51
2023-07-26 11:51:00,SystemResetWarning,0834.2,5.00,000.00,028.9,026.7,000.0,037.4,030.5,22.4,0000.0,0006.25,0003.26,0002.48
2023-07-26 11:52:00,SystemResetWarning,0834.2,4.99,000.00,028.9,027.0,000.0,037.4,030.6,22.4,0000.0,0006.20,0003.22,0002.43
2023-07-26 11:53:00,SystemResetWarning,0834.2,5.00,000.00,029.0,027.3,000.0,037.4,030.6,22.5,0000.0,0006.10,0003.20,0002.40
2023-07-26 11:54:00,SystemResetWarning,0834.2,5.00,000.00,029.0,027.5,000.0,037.4,030.7,22.1,0000.0,0007.22,0003.20,0002.38
2023-07-26 11:55:00,SystemResetWarning,0834.2,5.00,000.00,029.0,027.7,000.0,037.4,030.8,21.7,0000.0,0007.28,0003.18,0002.34
2023-07-26 11:56:00,SystemResetWarning,0834.3,5.01,000.00,029.1,027.9,000.0,037.5,030.8,21.6,0000.0,0007.21,0003.17,0002.31
2023-07-26 11:57:00,SystemResetWarning,0834.3,5.01,000.00,029.1,028.0,000.0,037.5,030.9,21.4,0000.0,0007.21,0003.18,0002.29
2023-07-26 11:58:00,SystemResetWarning,0834.3,5.00,000.00,029.2,028.1,000.0,037.5,030.9,21.3,0000.0,0007.21,0003.16,0002.28
2023-07-26 11:59:00,SystemResetWarning,0834.4,5.00,000.00,029.2,028.2,000.0,037.5,031.0,21.2,0000.0,0007.26,0003.15,0002.26
